period_start,C,m1,H,J0,J1,J2,J3,J4,J5,JA,JB,JC,JD,JJ,JK,JN,#
2014-10-03 00:04:39,0.06,0.33,0.00,23.42,26.94,29.54,4.75,26.96,1023.97,2038.00,3365.70,3228.76,3500.11,350.17,349.93,4.57,0000 0000 0000 0000 000000
2014-10-03 00:09:40,0.06,0.33,0.00,23.20,26.95,29.58,4.80,27.02,1023.98,2038.00,3364.77,3228.04,3499.60,349.80,349.75,4.59,0000 0000 0000 0000 000000
2014-10-03 00:14:41,0.07,0.33,0.00,23.17,26.95,29.62,4.87,27.04,1024.02,2038.00,3363.74,3227.55,3498.99,350.24,350.26,4.62,0000 0000 0000 0000 000000
2014-10-03 00:19:43,0.04,0.33,0.00,23.22,26.94,29.62,4.88,27.10,1023.99,2038.00,3362.98,3227.01,3498.36,349.77,349.78,4.65,0000 0000 0000 0000 000000
2014-10-03 00:24:44,0.04,0.33,0.00,23.31,26.94,29.56,4.86,26.91,1023.96,2038.00,3362.26,3226.73,3497.99,350.42,350.16,4.68,0000 0000 0000 0000 000000
2014-10-03 00:29:45,0.05,0.34,0.00,23.40,26.95,29.54,4.84,27.03,1023.94,2038.00,3361.76,3226.06,3497.45,350.12,349.88,4.71,0000 0000 0000 0000 000000
2014-10-03 00:34:46,0.02,0.34,0.00,23.42,26.95,29.58,4.84,27.03,1023.94,2038.02,3361.03,3225.97,3497.00,350.62,350.19,4.74,0000 0000 0000 0000 000000
2014-10-03 00:39:48,0.06,0.34,0.00,23.35,26.95,29.60,4.78,26.92,1023.94,2038.02,3360.32,3225.43,3496.77,350.39,350.17,4.77,0000 0000 0000 0000 000000
2014-10-03 00:44:48,0.04,0.34,0.00,23.26,26.96,29.61,4.86,26.87,1023.94,2038.00,3359.49,3225.01,3496.03,349.90,349.83,4.80,0000 0000 0000 0000 000000
2014-10-03 00:49:49,0.05,0.34,0.00,23.21,26.96,29.66,4.74,26.87,1023.94,2038.01,3358.96,3224.63,3495.73,349.80,349.66,4.83,0000 0000 0000 0000 000000
2014-10-03 00:54:51,0.06,0.34,0.00,23.22,26.95,29.66,4.81,27.13,1023.93,2038.05,3358.22,3224.05,3495.08,350.22,350.39,4.86,0000 0000 0000 0000 000000
2014-10-03 00:59:52,0.01,0.34,0.00,23.30,26.95,29.62,4.79,27.04,1023.93,2038.07,3357.87,3223.99,3494.97,350.10,349.80,4.89,0000 0000 0000 0000 000000
2014-10-03 01:04:53,0.08,0.35,0.00,23.41,26.96,29.56,4.82,26.97,1023.90,2038.08,3357.09,3223.42,3494.27,349.98,349.47,4.92,0000 0000 0000 0000 000000
2014-10-03 01:09:54,0.04,0.35,0.00,23.46,26.97,29.57,4.86,27.11,1023.82,2038.14,3356.52,3223.01,3494.00,350.04,349.76,4.95,0000 0000 0000 0000 000000
2014-10-03 01:14:55,0.05,0.35,0.00,23.42,26.97,29.61,4.78,27.04,1023.68,2038.06,3355.82,3222.59,3493.35,349.66,349.27,4.98,0000 0000 0000 0000 000000
2014-10-03 01:19:57,0.03,0.35,0.00,23.39,26.97,29.64,4.81,26.93,1023.51,2038.02,3355.08,3222.02,3492.97,350.63,350.12,5.00,0000 0000 0000 0000 000000
2014-10-03 01:24:58,0.04,0.35,0.00,23.34,26.98,29.64,4.88,26.99,1023.52,2038.02,3354.54,3221.96,3492.44,350.53,350.10,5.03,0000 0000 0000 0000 000000
2014-10-03 01:29:59,0.05,0.35,0.00,23.25,26.99,29.64,4.89,26.93,1023.50,2038.05,3353.97,3221.29,3492.02,350.45,350.22,5.06,0000 0000 0000 0000 000000
2014-10-03 01:35:00,0.03,0.35,0.00,23.22,26.99,29.64,4.85,26.91,1023.46,2038.08,3353.32,3221.00,3491.94,350.41,350.22,5.09,0000 0000 0000 0000 000000
2014-10-03 01:40:01,0.05,0.36,0.00,23.20,26.98,29.60,4.82,27.04,1023.45,2038.05,3352.72,3220.72,3491.15,350.64,350.36,5.12,0000 0000 0000 0000 000000
2014-10-03 01:45:03,0.03,0.36,0.00,23.25,26.97,29.61,4.76,26.95,1023.45,2038.02,3352.06,3220.07,3490.97,349.25,349.05,5.15,0000 0000 0000 0000 000000
2014-10-03 01:50:04,0.04,0.36,0.00,23.34,26.97,29.56,4.83,26.98,1023.45,2038.04,3351.74,3219.97,3490.39,350.29,349.88,5.18,0000 0000 0000 0000 000000
2014-10-03 01:55:06,0.06,0.36,0.00,23.43,26.97,29.53,4.86,27.00,1023.43,2038.12,3351.03,3219.57,3490.01,349.84,349.38,5.21,0000 0000 0000 0000 000000
2014-10-03 02:00:07,0.03,0.36,0.00,23.47,26.99,29.58,4.79,26.98,1023.44,2038.05,3350.35,3219.01,3489.48,349.96,349.31,5.24,0000 0000 0000 0000 000000
2014-10-03 02:05:08,0.04,0.36,0.00,23.48,27.00,29.61,4.79,26.93,1023.40,2038.06,3349.85,3218.73,3489.01,349.90,349.27,5.27,0000 0000 0000 0000 000000
2014-10-03 02:10:09,0.05,0.36,0.00,23.53,27.00,29.63,4.71,26.92,1023.14,2038.03,3349.03,3218.04,3488.60,349.36,348.82,5.30,0000 0000 0000 0000 000000
2014-10-03 02:15:10,0.06,0.37,0.00,23.50,27.02,29.67,4.89,26.93,1023.06,2038.01,3348.09,3217.56,3488.00,350.63,349.93,5.33,0000 0000 0000 0000 000000
2014-10-03 02:20:11,0.05,0.37,0.00,23.41,27.02,29.70,4.83,26.93,1023.00,2038.00,3347.40,3217.01,3487.39,350.01,349.43,5.36,0000 0000 0000 0000 000000
2014-10-03 02:25:12,0.03,0.37,0.00,23.24,27.02,29.71,4.83,27.02,1023.00,2038.02,3346.82,3216.85,3486.99,349.91,349.29,5.39,0000 0000 0000 0000 000000
2014-10-03 02:30:14,0.06,0.37,0.00,23.20,27.02,29.68,4.85,26.99,1022.98,2038.01,3346.07,3216.14,3486.37,350.57,350.13,5.41,0000 0000 0000 0000 000000
2014-10-03 02:35:15,0.02,0.37,0.00,23.30,27.02,29.70,4.75,27.04,1022.98,2038.02,3345.69,3215.99,3486.00,349.74,349.34,5.44,0000 0000 0000 0000 000000
2014-10-03 02:40:16,0.05,0.37,0.00,23.43,27.02,29.65,4.87,27.02,1022.97,2038.01,3345.02,3215.42,3485.68,350.44,349.67,5.47,0000 0000 0000 0000 000000
2014-10-03 02:45:18,0.04,0.37,0.00,23.51,27.04,29.66,4.69,26.92,1022.95,2038.00,3344.20,3215.00,3485.03,349.60,348.98,5.50,0000 0000 0000 0000 000000
2014-10-03 02:50:19,0.05,0.38,0.00,23.54,27.05,29.67,4.89,26.93,1022.94,2038.00,3343.68,3214.59,3484.67,350.55,349.69,5.53,0000 0000 0000 0000 000000
2014-10-03 02:55:20,0.04,0.38,0.00,23.46,27.05,29.67,4.66,26.91,1022.93,2038.00,3343.02,3214.03,3484.05,349.79,349.10,5.56,0000 0000 0000 0000 000000
2014-10-03 03:00:21,0.03,0.38,0.00,23.28,27.05,29.71,4.73,26.77,1022.93,2038.00,3342.34,3213.95,3483.92,349.62,349.22,5.59,0000 0000 0000 0000 000000
2014-10-03 03:05:23,0.08,0.38,0.00,23.25,27.05,29.69,4.87,26.91,1022.87,2038.00,3341.65,3213.16,3483.14,350.43,349.86,5.62,0000 0000 0000 0000 000000
2014-10-03 03:10:24,0.01,0.38,0.00,23.31,27.05,29.68,4.81,26.96,1022.78,2038.00,3340.99,3213.00,3482.96,350.46,349.79,5.65,0000 0000 0000 0000 000000
2014-10-03 03:15:26,0.08,0.38,0.00,23.38,27.05,29.69,4.80,26.99,1022.54,2038.00,3340.23,3212.41,3482.17,350.20,349.36,5.68,0000 0000 0000 0000 000000
2014-10-03 03:20:27,0.00,0.38,0.00,23.49,27.05,29.65,4.80,26.89,1022.57,2038.00,3339.89,3212.01,3481.99,349.86,349.04,5.71,0000 0000 0000 0000 000000
2014-10-03 03:25:28,0.04,0.38,0.00,23.46,27.05,29.66,4.88,27.05,1022.51,2038.00,3339.08,3211.90,3481.48,350.78,349.70,5.74,0000 0000 0000 0000 000000
2014-10-03 03:30:29,0.06,0.39,0.00,23.29,27.05,29.69,4.73,26.84,1022.49,2038.00,3338.50,3211.17,3481.02,349.73,349.17,5.77,0000 0000 0000 0000 000000
2014-10-03 03:35:31,0.04,0.39,0.00,23.21,27.05,29.66,4.76,26.76,1022.49,2038.00,3337.72,3210.98,3480.62,350.24,349.48,5.80,0000 0000 0000 0000 000000
2014-10-03 03:40:32,0.05,0.39,0.00,23.24,27.05,29.59,4.89,26.93,1022.48,2038.00,3336.99,3210.37,3480.02,350.61,350.16,5.82,0000 0000 0000 0000 000000
2014-10-03 03:45:33,0.04,0.39,0.00,23.26,27.05,29.62,4.80,26.82,1022.48,2038.00,3336.21,3210.01,3479.90,349.90,349.14,5.85,0000 0000 0000 0000 000000
2014-10-03 03:50:34,0.02,0.39,0.00,23.34,27.03,29.57,4.79,26.82,1022.48,2038.00,3335.94,3209.92,3479.20,350.15,349.41,5.88,0000 0000 0000 0000 000000
2014-10-03 03:55:36,0.07,0.39,0.00,23.43,27.02,29.60,4.71,26.77,1022.48,2038.01,3335.14,3209.17,3478.98,349.67,348.94,5.91,0000 0000 0000 0000 000000
2014-10-03 04:00:37,0.04,0.40,0.00,23.49,27.03,29.60,4.78,26.80,1022.48,2038.01,3334.49,3208.99,3478.22,349.78,348.85,5.94,0000 0000 0000 0000 000000
2014-10-03 04:05:38,0.02,0.40,0.00,23.37,27.03,29.62,4.88,26.91,1022.48,2038.00,3334.00,3208.67,3478.00,350.07,349.15,5.97,0000 0000 0000 0000 000000
2014-10-03 04:10:39,0.06,0.40,0.00,23.19,27.03,29.62,4.87,26.91,1022.48,2038.02,3333.18,3208.05,3477.64,350.58,350.04,6.00,0000 0000 0000 0000 000000
2014-10-03 04:15:40,0.04,0.40,0.00,23.22,27.02,29.60,4.79,26.97,1022.46,2038.02,3332.47,3207.96,3477.02,350.21,349.64,6.03,0000 0000 0000 0000 000000
2014-10-03 04:20:42,0.03,0.40,0.00,23.27,27.02,29.56,4.79,26.85,1022.47,2038.04,3332.02,3207.40,3476.97,349.54,348.99,6.06,0000 0000 0000 0000 000000
2014-10-03 04:25:43,0.05,0.40,0.00,23.35,27.02,29.56,4.86,26.88,1022.43,2038.03,3331.49,3207.02,3476.23,350.14,349.37,6.09,0000 0000 0000 0000 000000
2014-10-03 04:30:44,0.00,0.40,0.00,23.46,27.02,29.59,4.69,26.81,1022.35,2038.03,3331.04,3206.95,3476.00,349.88,348.88,6.12,0000 0000 0000 0000 000000
2014-10-03 04:35:46,0.07,0.40,0.00,23.50,27.02,29.58,4.77,26.79,1022.33,2038.03,3330.55,3206.31,3475.71,349.54,348.59,6.15,0000 0000 0000 0000 000000
2014-10-03 04:40:47,0.02,0.40,0.00,23.32,27.02,29.65,4.77,26.83,1022.32,2038.01,3329.95,3206.00,3475.04,349.76,349.17,6.18,0000 0000 0000 0000 000000
2014-10-03 04:45:48,0.04,0.41,0.00,23.18,27.02,29.68,4.83,26.87,1022.21,2038.02,3329.20,3205.78,3474.93,349.80,349.36,6.21,0000 0000 0000 0000 000000
2014-10-03 04:50:49,0.07,0.41,0.00,23.32,27.02,29.60,4.75,26.82,1022.10,2038.02,3328.67,3205.05,3474.16,349.94,349.02,6.23,0000 0000 0000 0000 000000
2014-10-03 04:55:50,0.02,0.41,0.00,23.48,27.02,29.65,4.81,26.87,1022.01,2038.01,3328.00,3204.88,3473.95,350.09,348.92,6.26,0000 0000 0000 0000 000000
2014-10-03 05:00:51,0.08,0.41,0.00,23.57,27.02,29.63,4.83,26.89,1022.01,2038.02,3327.24,3204.10,3473.16,349.96,348.74,6.29,0000 0000 0000 0000 000000
2014-10-03 05:05:52,0.03,0.41,0.00,23.54,27.02,29.65,4.79,26.84,1022.00,2038.02,3326.61,3203.92,3472.88,349.91,348.82,6.32,0000 0000 0000 0000 000000
2014-10-03 05:10:54,0.07,0.41,0.00,23.30,27.03,29.71,4.78,26.82,1022.00,2038.03,3325.88,3203.17,3472.12,349.56,348.78,6.35,0000 0000 0000 0000 000000
2014-10-03 05:15:55,0.03,0.42,0.00,23.23,27.03,29.71,4.79,26.86,1021.99,2038.00,3325.04,3202.96,3471.79,349.38,348.68,6.38,0000 0000 0000 0000 000000
2014-10-03 05:20:56,0.08,0.42,0.00,23.39,27.02,29.66,4.74,26.77,1021.99,2038.01,3324.34,3202.32,3471.12,349.67,348.74,6.41,0000 0000 0000 0000 000000
2014-10-03 05:25:57,0.01,0.42,0.00,23.57,27.03,29.69,4.68,26.82,1021.99,2038.01,3323.93,3202.00,3470.98,349.41,348.27,6.44,0000 0000 0000 0000 000000
2014-10-03 05:30:59,0.06,0.42,0.00,23.61,27.04,29.65,4.78,26.78,1021.98,2038.01,3323.14,3201.77,3470.32,349.34,348.22,6.47,0000 0000 0000 0000 000000
2014-10-03 05:36:00,0.05,0.42,0.00,23.48,27.05,29.70,4.79,26.77,1021.83,2038.02,3322.57,3201.06,3469.99,350.05,348.95,6.50,0000 0000 0000 0000 000000
2014-10-03 05:41:02,0.05,0.42,0.00,23.28,27.05,29.74,4.79,26.82,1021.68,2038.02,3321.70,3200.91,3469.36,350.00,349.00,6.53,0000 0000 0000 0000 000000
2014-10-03 05:46:03,0.05,0.42,0.00,23.31,27.05,29.72,4.80,26.70,1021.58,2038.03,3321.03,3200.21,3469.00,350.23,349.27,6.56,0000 0000 0000 0000 000000
2014-10-03 05:51:04,0.03,0.42,0.00,23.50,27.05,29.70,4.81,26.78,1021.55,2038.04,3320.64,3200.00,3468.72,350.36,349.01,6.59,0000 0000 0000 0000 000000
2014-10-03 05:56:05,0.05,0.43,0.00,23.63,27.05,29.69,4.83,26.80,1021.51,2038.03,3319.97,3199.50,3468.04,349.71,348.34,6.62,0000 0000 0000 0000 000000
2014-10-03 06:01:06,0.05,0.43,0.00,23.59,27.06,29.71,4.78,26.79,1021.50,2038.03,3319.17,3199.01,3467.70,349.81,348.34,6.64,0000 0000 0000 0000 000000
2014-10-03 06:06:07,0.04,0.43,0.00,23.37,27.07,29.77,4.82,26.77,1021.50,2038.02,3318.46,3198.87,3467.04,349.95,348.99,6.67,0000 0000 0000 0000 000000
2014-10-03 06:11:08,0.05,0.43,0.00,23.27,27.07,29.75,4.86,26.88,1021.50,2038.01,3317.84,3198.19,3466.74,350.35,349.45,6.70,0000 0000 0000 0000 000000
2014-10-03 06:16:10,0.04,0.43,0.00,23.34,27.07,29.73,4.80,26.84,1021.50,2038.01,3317.04,3197.97,3466.03,349.73,348.77,6.73,0000 0000 0000 0000 000000
2014-10-03 06:21:11,0.04,0.43,0.00,23.51,27.07,29.71,4.84,26.83,1021.50,2038.01,3316.75,3197.47,3465.90,350.71,349.34,6.76,0000 0000 0000 0000 000000
2014-10-03 06:26:12,0.04,0.44,0.00,23.66,27.07,29.71,4.82,26.77,1021.50,2038.02,3316.07,3197.02,3465.25,350.27,348.73,6.79,0000 0000 0000 0000 000000
2014-10-03 06:31:13,0.02,0.44,0.00,23.65,27.07,29.70,4.80,26.78,1021.50,2038.03,3315.64,3196.96,3464.99,350.12,348.81,6.82,0000 0000 0000 0000 000000
2014-10-03 06:36:14,0.06,0.44,0.00,23.42,27.07,29.76,4.82,26.91,1021.50,2038.00,3314.98,3196.23,3464.41,350.02,349.09,6.85,0000 0000 0000 0000 000000
2014-10-03 06:41:16,0.03,0.44,0.00,23.29,27.07,29.78,4.80,26.77,1021.49,2038.00,3314.25,3196.00,3464.02,349.58,348.64,6.88,0000 0000 0000 0000 000000
2014-10-03 06:46:17,0.04,0.44,0.00,23.32,27.07,29.75,4.84,26.73,1021.49,2038.00,3313.82,3195.78,3463.78,350.08,348.95,6.91,0000 0000 0000 0000 000000
2014-10-03 06:51:18,0.05,0.44,0.00,23.44,27.07,29.72,4.81,26.69,1021.47,2038.00,3313.06,3195.08,3463.06,350.25,349.26,6.94,0000 0000 0000 0000 000000
2014-10-03 06:56:19,0.02,0.44,0.00,23.61,27.07,29.73,4.70,26.81,1021.47,2038.00,3312.61,3194.91,3462.85,349.72,348.28,6.97,0000 0000 0000 0000 000000
2014-10-03 07:01:21,0.06,0.44,0.00,23.67,27.07,29.72,4.83,26.79,1021.47,2038.00,3312.00,3194.21,3462.09,350.60,349.17,7.00,0000 0000 0000 0000 000000
2014-10-03 07:06:22,0.03,0.45,0.00,23.55,27.08,29.73,4.66,26.78,1021.46,2038.00,3311.28,3193.99,3461.95,349.46,348.12,7.03,0000 0000 0000 0000 000000
2014-10-03 07:11:23,0.08,0.45,0.00,23.33,27.09,29.78,4.83,26.74,1021.36,2038.00,3310.39,3193.42,3461.11,350.12,349.05,7.05,0000 0000 0000 0000 000000
2014-10-03 07:16:24,0.01,0.45,0.00,23.30,27.08,29.76,4.81,26.75,1021.15,2038.00,3309.94,3193.01,3460.97,349.83,348.92,7.08,0000 0000 0000 0000 000000
2014-10-03 07:21:26,0.05,0.45,0.00,23.46,27.07,29.71,4.80,26.82,1021.17,2038.00,3309.21,3192.92,3460.41,350.27,348.90,7.11,0000 0000 0000 0000 000000
2014-10-03 07:26:27,0.04,0.45,0.00,23.60,27.08,29.71,4.78,26.73,1021.10,2038.00,3308.92,3192.18,3460.00,350.15,348.70,7.14,0000 0000 0000 0000 000000
2014-10-03 07:31:28,0.04,0.45,0.00,23.62,27.08,29.72,4.74,26.68,1021.07,2038.00,3308.11,3191.99,3459.69,350.01,348.46,7.17,0000 0000 0000 0000 000000
2014-10-03 07:36:29,0.03,0.45,0.00,23.42,27.09,29.78,4.67,26.73,1021.11,2038.01,3307.65,3191.84,3459.03,349.59,348.52,7.20,0000 0000 0000 0000 000000
2014-10-03 07:41:31,0.04,0.46,0.00,23.29,27.09,29.78,4.81,26.75,1021.08,2038.00,3306.97,3191.11,3458.94,349.81,348.56,7.23,0000 0000 0000 0000 000000
2014-10-03 07:46:32,0.05,0.46,0.00,23.33,27.07,29.74,4.79,26.73,1021.07,2038.00,3306.15,3190.97,3458.15,349.93,348.66,7.26,0000 0000 0000 0000 000000
2014-10-03 07:51:33,0.03,0.46,0.00,23.48,27.07,29.73,4.82,26.81,1021.03,2038.00,3305.91,3190.45,3458.00,350.37,349.04,7.29,0000 0000 0000 0000 000000
2014-10-03 07:56:34,0.05,0.46,0.00,23.62,27.07,29.71,4.79,26.77,1021.01,2038.01,3305.08,3190.01,3457.55,349.96,348.33,7.32,0000 0000 0000 0000 000000
2014-10-03 08:01:36,0.04,0.46,0.00,23.62,27.08,29.72,4.76,26.78,1021.02,2038.00,3304.55,3189.82,3457.01,350.32,348.70,7.35,0000 0000 0000 0000 000000
2014-10-03 08:06:37,0.03,0.46,0.00,23.43,27.09,29.79,4.77,26.69,1021.02,2038.00,3304.00,3189.10,3456.84,350.15,348.63,7.38,0000 0000 0000 0000 000000
2014-10-03 08:11:38,0.04,0.46,0.00,23.30,27.09,29.78,4.77,26.78,1021.02,2038.00,3303.53,3188.99,3456.10,349.79,348.68,7.41,0000 0000 0000 0000 000000
2014-10-03 08:16:39,0.03,0.46,0.00,23.33,27.08,29.76,4.79,26.71,1021.01,2038.00,3302.99,3188.60,3455.97,350.25,349.08,7.44,0000 0000 0000 0000 000000
2014-10-03 08:21:41,0.06,0.47,0.00,23.39,27.07,29.74,4.76,26.73,1021.01,2038.00,3302.28,3188.06,3455.43,349.67,348.35,7.46,0000 0000 0000 0000 000000
2014-10-03 08:26:42,0.00,0.47,0.00,23.51,27.07,29.74,4.81,26.78,1021.01,2038.00,3301.96,3187.99,3455.03,349.97,348.53,7.49,0000 0000 0000 0000 000000
2014-10-03 08:31:43,0.06,0.47,0.00,23.62,27.08,29.70,4.70,27.09,1021.02,2038.00,3301.17,3187.51,3454.87,349.45,347.95,7.52,0000 0000 0000 0000 000000
2014-10-03 08:36:45,0.03,0.47,0.00,23.63,27.09,29.72,4.72,27.01,1021.02,2038.00,3300.82,3187.02,3454.12,349.56,348.01,7.55,0000 0000 0000 0000 000000
2014-10-03 08:41:46,0.02,0.47,0.00,23.42,27.09,29.79,4.81,27.04,1021.01,2038.00,3300.05,3186.98,3453.99,350.17,349.01,7.58,0000 0000 0000 0000 000000
2014-10-03 08:46:47,0.06,0.47,0.00,23.31,27.09,29.78,4.75,27.01,1021.01,2038.00,3299.70,3186.40,3453.63,349.67,348.56,7.61,0000 0000 0000 0000 000000
2014-10-03 08:51:48,0.03,0.47,0.00,23.35,27.07,29.74,4.72,26.86,1021.01,2038.00,3299.02,3186.01,3453.03,350.00,348.78,7.64,0000 0000 0000 0000 000000
2014-10-03 08:56:50,0.01,0.47,0.00,23.49,27.07,29.74,4.73,26.86,1021.01,2038.00,3298.69,3185.95,3452.98,350.13,348.82,7.67,0000 0000 0000 0000 000000
2014-10-03 09:01:51,0.06,0.47,0.00,23.61,27.07,29.69,4.80,26.95,1021.01,2038.00,3298.04,3185.44,3452.34,350.33,348.88,7.70,0000 0000 0000 0000 000000
2014-10-03 09:06:52,0.02,0.48,0.00,23.64,27.08,29.72,4.77,26.90,1021.01,2038.00,3297.71,3185.02,3452.01,349.41,347.77,7.73,0000 0000 0000 0000 000000
2014-10-03 09:11:53,0.02,0.48,0.00,23.43,27.09,29.78,4.79,26.83,1021.01,2038.00,3297.03,3184.98,3451.89,349.71,348.33,7.76,0000 0000 0000 0000 000000
2014-10-03 09:16:55,0.07,0.48,0.00,23.28,27.09,29.78,4.76,26.89,1021.01,2038.00,3296.61,3184.35,3451.11,350.07,349.04,7.79,0000 0000 0000 0000 000000
2014-10-03 09:21:56,0.01,0.48,0.00,23.34,27.08,29.77,4.88,26.88,1021.01,2038.00,3296.03,3184.04,3451.00,350.27,348.97,7.82,0000 0000 0000 0000 000000
2014-10-03 09:26:57,0.00,0.48,0.00,23.50,27.07,29.72,4.76,26.72,1021.01,2038.00,3296.00,3184.00,3450.97,350.13,348.93,7.85,0000 0000 0000 0000 000000
2014-10-03 09:31:59,0.01,0.48,0.00,23.60,27.07,29.72,4.74,26.77,1021.01,2038.00,3295.86,3183.98,3450.70,349.60,348.18,7.87,0000 0000 0000 0000 000000
2014-10-03 09:37:00,0.05,0.48,0.00,23.62,27.08,29.73,4.80,26.77,1021.01,2038.00,3295.15,3183.74,3450.08,349.99,348.37,7.90,0000 0000 0000 0000 000000
2014-10-03 09:42:01,0.02,0.48,0.00,23.43,27.09,29.79,4.87,26.80,1021.00,2038.00,3294.98,3183.19,3450.00,350.32,348.94,7.93,0000 0000 0000 0000 000000
2014-10-03 09:47:02,0.02,0.48,0.00,23.28,27.09,29.80,4.78,26.70,1020.99,2038.00,3294.35,3183.01,3449.97,350.05,348.86,7.96,0000 0000 0000 0000 000000
2014-10-03 09:52:03,0.02,0.48,0.00,23.30,27.08,29.76,4.78,26.71,1020.90,2038.00,3294.03,3182.99,3449.60,350.10,348.87,7.99,0000 0000 0000 0000 000000
2014-10-03 09:57:05,0.01,0.48,0.00,23.40,27.07,29.73,4.75,26.74,1020.77,2038.00,3293.97,3182.88,3449.05,349.72,348.36,8.02,0000 0000 0000 0000 000000
2014-10-03 10:02:06,0.04,0.48,0.00,23.55,27.07,29.68,4.80,26.78,1020.60,2038.00,3293.48,3182.34,3449.00,350.19,348.60,8.05,0000 0000 0000 0000 000000
2014-10-03 10:07:07,0.01,0.49,0.00,23.62,27.07,29.70,4.79,26.70,1020.55,2038.00,3293.04,3182.03,3448.99,350.05,348.18,8.08,0000 0000 0000 0000 000000
2014-10-03 10:12:09,0.01,0.49,0.00,23.52,27.07,29.74,4.71,26.82,1020.53,2038.00,3292.95,3182.01,3448.83,349.46,348.15,8.11,0000 0000 0000 0000 000000
2014-10-03 10:17:10,0.03,0.49,0.00,23.31,27.07,29.78,4.83,26.81,1020.52,2038.00,3292.23,3181.99,3448.11,350.32,349.02,8.14,0000 0000 0000 0000 000000
2014-10-03 10:22:11,0.01,0.49,0.00,23.29,27.07,29.76,4.81,26.93,1020.53,2038.00,3292.03,3181.81,3448.01,349.96,348.64,8.17,0000 0000 0000 0000 000000
2014-10-03 10:27:12,0.01,0.49,0.00,23.42,27.07,29.70,4.72,27.06,1020.52,2038.00,3292.00,3181.56,3448.00,350.00,348.61,8.20,0000 0000 0000 0000 000000
2014-10-03 10:32:13,0.02,0.49,0.00,23.58,27.07,29.68,4.84,27.07,1020.52,2038.00,3291.99,3181.21,3448.00,349.69,348.09,8.23,0000 0000 0000 0000 000000
2014-10-03 10:37:14,0.01,0.49,0.00,23.64,27.07,29.69,4.70,26.78,1020.52,2038.00,3291.85,3181.04,3447.97,349.76,347.92,8.26,0000 0000 0000 0000 000000
2014-10-03 10:42:16,0.03,0.49,0.00,23.47,27.07,29.74,4.83,26.83,1020.51,2038.00,3291.15,3181.00,3447.62,350.07,348.54,8.28,0000 0000 0000 0000 000000
2014-10-03 10:47:17,0.00,0.49,0.00,23.27,27.07,29.78,4.78,26.80,1020.52,2038.00,3291.00,3180.99,3447.09,349.86,348.28,8.31,0000 0000 0000 0000 000000
2014-10-03 10:52:18,0.00,0.49,0.00,23.30,27.07,29.76,4.80,26.76,1020.51,2038.00,3290.87,3180.94,3447.00,349.96,348.71,8.34,0000 0000 0000 0000 000000
2014-10-03 10:57:20,0.04,0.49,0.00,23.48,27.07,29.71,4.79,26.76,1020.44,2038.00,3290.16,3180.58,3446.99,349.94,348.53,8.37,0000 0000 0000 0000 000000
2014-10-03 11:02:21,0.03,0.49,0.00,23.60,27.07,29.66,4.75,26.64,1020.41,2038.00,3290.00,3180.04,3446.72,349.77,348.05,8.40,0000 0000 0000 0000 000000
2014-10-03 11:07:22,0.02,0.49,0.00,23.60,27.07,29.72,4.73,26.63,1020.29,2038.00,3289.76,3180.00,3446.08,349.25,347.55,8.43,0000 0000 0000 0000 000000
2014-10-03 11:12:23,0.02,0.49,0.00,23.38,27.07,29.77,4.83,26.77,1020.08,2038.00,3289.13,3179.95,3446.00,350.04,348.35,8.46,0000 0000 0000 0000 000000
2014-10-03 11:17:25,0.00,0.49,0.00,23.27,27.07,29.80,4.69,26.64,1020.05,2038.00,3288.99,3179.85,3445.99,349.70,348.12,8.49,0000 0000 0000 0000 000000
2014-10-03 11:22:26,0.04,0.50,0.00,23.33,27.07,29.78,4.80,26.67,1020.04,2038.00,3288.83,3179.32,3445.91,350.00,348.47,8.52,0000 0000 0000 0000 000000
2014-10-03 11:27:27,0.03,0.50,0.00,23.52,27.07,29.71,4.78,26.63,1020.04,2038.00,3288.47,3179.06,3445.62,350.07,348.28,8.55,0000 0000 0000 0000 000000
2014-10-03 11:32:29,0.02,0.50,0.00,23.62,27.07,29.67,4.70,26.69,1020.04,2038.00,3288.05,3179.00,3445.14,349.73,347.61,8.58,0000 0000 0000 0000 000000
2014-10-03 11:37:30,0.00,0.50,0.00,23.59,27.07,29.73,4.85,26.75,1020.04,2038.00,3288.00,3179.00,3445.03,349.84,348.03,8.61,0000 0000 0000 0000 000000
2014-10-03 11:42:31,0.01,0.50,0.00,23.37,27.08,29.80,4.71,26.72,1020.04,2038.00,3287.83,3178.97,3444.99,349.74,348.19,8.64,0000 0000 0000 0000 000000
2014-10-03 11:47:32,0.04,0.50,0.00,23.25,27.08,29.80,4.76,26.63,1020.01,2038.00,3287.14,3178.70,3444.94,350.30,348.77,8.67,0000 0000 0000 0000 000000
2014-10-03 11:52:33,0.02,0.50,0.00,23.34,27.07,29.76,4.79,26.68,1019.98,2038.00,3287.00,3178.15,3444.54,350.27,348.70,8.69,0000 0000 0000 0000 000000
2014-10-03 11:57:34,0.01,0.50,0.00,23.50,27.07,29.72,4.77,26.68,1019.79,2038.00,3287.00,3178.11,3444.43,350.20,348.59,8.72,0000 0000 0000 0000 000000
2014-10-03 12:02:36,0.01,0.50,0.00,23.58,27.08,29.71,4.75,26.70,1019.64,2038.00,3286.99,3178.02,3444.14,350.18,348.22,8.75,0000 0000 0000 0000 000000
2014-10-03 12:07:37,0.01,0.50,0.00,23.49,27.09,29.75,4.75,26.73,1019.57,2038.00,3286.72,3178.00,3444.00,349.73,347.86,8.78,0000 0000 0000 0000 000000
2014-10-03 12:12:38,0.01,0.50,0.00,23.26,27.09,29.80,4.81,26.78,1019.56,2038.00,3286.05,3177.97,3443.97,350.35,348.80,8.81,0000 0000 0000 0000 000000
2014-10-03 12:17:39,0.00,0.50,0.00,23.20,27.08,29.72,4.82,26.88,1019.56,2038.00,3286.00,3177.90,3443.96,349.62,348.24,8.84,0000 0000 0000 0000 000000
2014-10-03 12:22:41,0.03,0.50,0.00,23.33,27.07,29.67,4.74,26.71,1019.55,2038.00,3285.96,3177.62,3443.81,349.57,347.92,8.87,0000 0000 0000 0000 000000
2014-10-03 12:27:42,-0.00,0.50,0.00,23.45,27.07,29.64,4.78,26.80,1019.55,2037.99,3285.76,3177.47,3443.67,349.98,347.97,8.90,0000 0000 0000 0000 000000
2014-10-03 12:32:44,0.06,0.50,0.00,23.56,27.07,29.69,4.82,26.82,1019.55,2038.00,3285.24,3177.13,3443.18,350.37,348.52,8.93,0000 0000 0000 0000 000000
2014-10-03 12:37:45,0.00,0.50,0.00,23.51,27.07,29.69,4.79,26.93,1019.54,2038.00,3285.03,3177.02,3443.03,350.47,348.45,8.96,0000 0000 0000 0000 000000
2014-10-03 12:42:46,0.00,0.50,0.00,23.29,27.07,29.70,4.77,26.78,1019.53,2038.00,3285.00,3177.00,3443.00,349.90,348.13,8.99,0000 0000 0000 0000 000000
2014-10-03 12:47:47,0.00,0.50,0.00,23.19,27.06,29.70,4.78,26.87,1019.45,2038.00,3284.96,3177.00,3443.00,349.71,348.18,9.02,0000 0000 0000 0000 000000
2014-10-03 12:52:48,0.01,0.50,0.00,23.26,27.05,29.63,4.80,26.77,1019.33,2038.01,3284.51,3177.00,3442.98,350.12,348.37,9.05,0000 0000 0000 0000 000000
2014-10-03 12:57:50,0.01,0.50,0.00,23.38,27.05,29.58,4.75,26.82,1019.16,2038.00,3284.11,3176.99,3442.98,349.77,347.79,9.07,0000 0000 0000 0000 000000
2014-10-03 13:02:51,0.00,0.50,0.00,23.48,27.04,29.61,4.76,26.78,1019.11,2038.01,3284.00,3176.97,3442.95,350.14,348.17,9.10,0000 0000 0000 0000 000000
2014-10-03 13:07:52,0.02,0.50,0.00,23.52,27.04,29.61,4.81,26.84,1019.07,2038.01,3284.00,3176.78,3442.55,349.93,347.95,9.13,0000 0000 0000 0000 000000